This is the latest recevied weather packets stored in our database for station/object M0HZQ-1. If no packets are shown the sender has not sent any weather packets the latest 1 day(s).
| Time | Temp. | Humidity | Pressure | Rain* | Wind** | Luminosity | Snow |
|---|---|---|---|---|---|---|---|
| 1778062504 | 13.89° C | 46% | 1013.7 hPa | 0 mm | - | - | - |
| 1778061524 | 13.33° C | 46% | 1013.7 hPa | 0 mm | - | - | - |
| 1778060364 | 13.33° C | 46% | 1013.8 hPa | 0 mm | - | - | - |
| 1778059334 | 13.33° C | 47% | 1013.8 hPa | 0 mm | - | - | - |
| 1778058309 | 13.89° C | 48% | 1013.6 hPa | 0 mm | - | - | - |
| 1778057144 | 12.78° C | 49% | 1013.6 hPa | 0 mm | - | - | - |
| 1778055969 | 12.78° C | 51% | 1013.3 hPa | 0 mm | - | - | - |
| 1778054939 | 11.67° C | 54% | 1013.5 hPa | 0 mm | - | - | - |
| 1778053834 | 11.67° C | 54% | 1013.5 hPa | 0 mm | - | - | - |
| 1778052817 | 12.22° C | 54% | 1013.5 hPa | 0 mm | - | - | - |
| 1778051844 | 11.67° C | 56% | 1013.4 hPa | 0 mm | - | - | - |
| 1778049709 | 11.67° C | 57% | 1013.2 hPa | 0 mm | - | - | - |
| 1778048634 | 10.56° C | 58% | 1013.3 hPa | 0 mm | - | - | - |
| 1778047594 | 10.56° C | 58% | 1013.5 hPa | 0 mm | - | - | - |
| 1778046620 | 10° C | 59% | 1013.1 hPa | 0 mm | - | - | - |
| 1778045549 | 10.56° C | 59% | 1013.1 hPa | 0 mm | - | - | - |
| 1778043537 | 10° C | 59% | 1013.2 hPa | 0 mm | - | - | - |
| 1778042384 | 10.56° C | 60% | 1013.1 hPa | 0 mm | - | - | - |
| 1778041269 | 10° C | 60% | 1013 hPa | 0 mm | - | - | - |
| 1778040144 | 10.56° C | 60% | 1013.1 hPa | 0 mm | - | - | - |
| 1778039024 | 11.11° C | 59% | 1013 hPa | 0 mm | - | - | - |
| 1778038034 | 10.56° C | 59% | 1013.1 hPa | 0 mm | - | - | - |
| 1778036944 | 11.11° C | 58% | 1013 hPa | 0 mm | - | - | - |
| 1778035797 | 11.11° C | 59% | 1013.1 hPa | 0 mm | - | - | - |
| 1778034764 | 11.11° C | 59% | 1013.3 hPa | 0 mm | - | - | - |
* Rain latest hour (hover to see other rain measurements)
** Current wind speed in m/s (hover to see current wind gust speed)